Madison, MN

6:18 AM CDT on July 26, 2017 (GMT -0500)
Madison-Lac Qui Parle County

Weather History for KDXX - July, 2013

Change the Weather History Date:

Friday, July 26, 2013

  Actual Average (KAQP) Record (KAQP)
Temperature  
Mean Temperature 61 °F -  
Max Temperature 69 °F 79 °F 87 °F (2002)
Min Temperature 53 °F 59 °F 48 °F (2004)
Degree Days  
Heating Degree Days 4    
Growing Degree Days 11 (Base 50)    
Moisture  
Dew Point 49 °F    
Average Humidity 68    
Maximum Humidity 88    
Minimum Humidity 46    
Precipitation  
Precipitation 0.00 in - - ()
Sea Level Pressure  
Sea Level Pressure 30.09 in    
Wind  
Wind Speed 12 mph (NNW)    
Max Wind Speed 23 mph    
Max Gust Speed 32 mph    
Visibility 10 miles    
Events      
Averages and records for this station are not official NWS values.
T = Trace of Precipitation, MM = Missing Value Source: NWS Daily Summary

Daily Weather History Graph

Daily Weather History Graph

Search for Another Location

Airport or City:

Trip Planner

Search our weather history database for the weather conditions in past years. The results will help you decide how hot, cold, wet, or windy it might be!

Date:

Astronomy

Jul. 26, 2013 Rise Set
Actual Time 6:03 AM CDT 8:58 PM CDT
Civil Twilight 5:29 AM CDT 9:32 PM CDT
Nautical Twilight 4:45 AM CDT 10:16 PM CDT
Astronomical Twilight 3:53 AM CDT 11:07 PM CDT
Moon 10:56 PM CDT 10:56 AM CDT
Length of Visible Light 16h 03m
Length of Day
14h 54m
Waning Gibbous, 80% of the Moon is Illuminated
Jul 26
Waning Gibbous
Jul 29
Last Quarter
Aug 6
New
Aug 14
First Quarter
Aug 20
Full

Hourly Weather History & Observations

Time (CDT) Temp. Dew Point Humidity Pressure Visibility Wind Dir Wind Speed Gust Speed Precip Events Conditions
12:14 AM 62.6 °F 53.6 °F 72% 30.00 in 10.0 mi NW 6.9 mph - N/A   Clear
12:33 AM 62.6 °F 53.6 °F 72% 30.00 in 10.0 mi WNW 8.1 mph - N/A   Clear
12:54 AM 59.0 °F 53.6 °F 82% 30.01 in 10.0 mi WNW 6.9 mph - N/A   Clear
1:14 AM 59.0 °F 53.6 °F 82% 30.01 in 10.0 mi WNW 8.1 mph - N/A   Clear
1:33 AM 57.2 °F 51.8 °F 82% 30.01 in 10.0 mi WNW 6.9 mph - N/A   Clear
1:54 AM 57.2 °F 51.8 °F 82% 30.01 in 10.0 mi NW 8.1 mph - N/A   Clear
2:14 AM 57.2 °F 51.8 °F 82% 30.01 in 10.0 mi WNW 6.9 mph - N/A   Clear
2:33 AM 57.2 °F 50.0 °F 77% 30.01 in 10.0 mi WNW 10.4 mph - N/A   Clear
2:54 AM 57.2 °F 50.0 °F 77% 30.01 in 10.0 mi WNW 6.9 mph - N/A   Clear
3:14 AM 53.6 °F 48.2 °F 82% 30.01 in 10.0 mi WNW 5.8 mph - N/A   Clear
3:33 AM 53.6 °F 48.2 °F 82% 30.01 in 10.0 mi WNW 8.1 mph - N/A   Clear
3:54 AM 53.6 °F 48.2 °F 82% 30.02 in 10.0 mi WNW 8.1 mph - N/A   Clear
4:14 AM 53.6 °F 48.2 °F 82% 30.01 in 10.0 mi WNW 6.9 mph - N/A   Clear
4:33 AM 53.6 °F 50.0 °F 88% 30.01 in 10.0 mi NW 6.9 mph - N/A   Clear
4:54 AM 55.4 °F 50.0 °F 82% 30.02 in 10.0 mi NW 10.4 mph - N/A   Clear
5:14 AM 55.4 °F 50.0 °F 82% 30.02 in 10.0 mi NW 11.5 mph - N/A   Clear
5:33 AM 55.4 °F 50.0 °F 82% 30.02 in 10.0 mi NW 10.4 mph - N/A   Clear
5:54 AM 55.4 °F 50.0 °F 82% 30.02 in 10.0 mi NW 12.7 mph - N/A   Scattered Clouds
6:14 AM 53.6 °F 50.0 °F 88% 30.03 in 10.0 mi NW 10.4 mph - N/A   Scattered Clouds
6:33 AM 55.4 °F 50.0 °F 82% 30.03 in 10.0 mi NW 11.5 mph - N/A   Clear
6:54 AM 55.4 °F 50.0 °F 82% 30.04 in 10.0 mi NW 12.7 mph 18.4 mph N/A   Clear
7:14 AM 55.4 °F 50.0 °F 82% 30.05 in 10.0 mi NW 15.0 mph 19.6 mph N/A   Scattered Clouds
7:33 AM 57.2 °F 51.8 °F 82% 30.05 in 10.0 mi NW 12.7 mph 18.4 mph N/A   Mostly Cloudy
7:54 AM 57.2 °F 51.8 °F 82% 30.06 in 10.0 mi NW 13.8 mph 18.4 mph N/A   Overcast
8:14 AM 57.2 °F 51.8 °F 82% 30.06 in 10.0 mi NW 12.7 mph 20.7 mph N/A   Overcast
8:33 AM 57.2 °F 51.8 °F 82% 30.07 in 10.0 mi NNW 18.4 mph 25.3 mph N/A   Overcast
8:54 AM 57.2 °F 51.8 °F 82% 30.07 in 10.0 mi NNW 18.4 mph 25.3 mph N/A   Overcast
9:14 AM 59.0 °F 51.8 °F 77% 30.07 in 10.0 mi NNW 17.3 mph 29.9 mph N/A   Mostly Cloudy
9:33 AM 59.0 °F 51.8 °F 77% 30.08 in 10.0 mi NNW 16.1 mph 28.8 mph N/A   Overcast
9:54 AM 59.0 °F 51.8 °F 77% 30.09 in 10.0 mi NNW 21.9 mph 28.8 mph N/A   Overcast
10:14 AM 60.8 °F 51.8 °F 72% 30.09 in 10.0 mi NNW 18.4 mph 25.3 mph N/A   Overcast
10:33 AM 60.8 °F 51.8 °F 72% 30.10 in 10.0 mi NNW 21.9 mph 28.8 mph N/A   Mostly Cloudy
10:54 AM 60.8 °F 50.0 °F 68% 30.11 in 10.0 mi NNW 21.9 mph 31.1 mph N/A   Mostly Cloudy
11:14 AM 60.8 °F 50.0 °F 68% 30.12 in 10.0 mi NNW 23.0 mph 27.6 mph N/A   Mostly Cloudy
11:33 AM 62.6 °F 51.8 °F 68% 30.13 in 10.0 mi NNW 19.6 mph 29.9 mph N/A   Scattered Clouds
11:54 AM 62.6 °F 50.0 °F 63% 30.14 in 10.0 mi NNW 20.7 mph 31.1 mph N/A   Scattered Clouds
12:14 PM 64.4 °F 51.8 °F 64% 30.14 in 10.0 mi NNW 23.0 mph 32.2 mph N/A   Scattered Clouds
12:33 PM 64.4 °F 51.8 °F 64% 30.14 in 10.0 mi NNW 21.9 mph 32.2 mph N/A   Clear
12:54 PM 64.4 °F 50.0 °F 59% 30.13 in 10.0 mi North 19.6 mph 25.3 mph N/A   Scattered Clouds
1:14 PM 66.2 °F 50.0 °F 56% 30.13 in 10.0 mi North 20.7 mph 27.6 mph N/A   Scattered Clouds
1:33 PM 66.2 °F 50.0 °F 56% 30.13 in 10.0 mi North 18.4 mph 29.9 mph N/A   Scattered Clouds
1:54 PM 64.4 °F 48.2 °F 56% 30.13 in 10.0 mi North 18.4 mph 27.6 mph N/A   Scattered Clouds
2:14 PM 66.2 °F 48.2 °F 52% 30.13 in 10.0 mi North 18.4 mph 27.6 mph N/A   Scattered Clouds
2:33 PM 64.4 °F 48.2 °F 56% 30.14 in 10.0 mi North 16.1 mph 29.9 mph N/A   Mostly Cloudy
2:54 PM 66.2 °F 48.2 °F 52% 30.13 in 10.0 mi NNW 18.4 mph 24.2 mph N/A   Mostly Cloudy
3:14 PM 68.0 °F 48.2 °F 49% 30.13 in 10.0 mi North 17.3 mph 25.3 mph N/A   Scattered Clouds
3:33 PM 66.2 °F 48.2 °F 52% 30.13 in 10.0 mi NNW 18.4 mph 25.3 mph N/A   Scattered Clouds
3:54 PM 69.8 °F 48.2 °F 46% 30.12 in 10.0 mi NNW 18.4 mph 27.6 mph N/A   Scattered Clouds
4:13 PM 68.0 °F 48.2 °F 49% 30.12 in 10.0 mi North 16.1 mph 25.3 mph N/A   Scattered Clouds
4:33 PM 69.8 °F 48.2 °F 46% 30.12 in 10.0 mi NNW 16.1 mph 24.2 mph N/A   Clear
4:54 PM 68.0 °F 48.2 °F 49% 30.12 in 10.0 mi North 17.3 mph 25.3 mph N/A   Scattered Clouds
5:13 PM 66.2 °F 44.6 °F 46% 30.12 in 10.0 mi North 20.7 mph 24.2 mph N/A   Clear
5:33 PM 68.0 °F 48.2 °F 49% 30.12 in 10.0 mi NNW 17.3 mph 23.0 mph N/A   Scattered Clouds
5:54 PM 66.2 °F 46.4 °F 49% 30.12 in 10.0 mi North 18.4 mph - N/A   Scattered Clouds
6:13 PM 68.0 °F 46.4 °F 46% 30.12 in 10.0 mi North 18.4 mph 23.0 mph N/A   Scattered Clouds
6:33 PM 66.2 °F 44.6 °F 46% 30.12 in 10.0 mi North 17.3 mph 24.2 mph N/A   Scattered Clouds
6:54 PM 66.2 °F 44.6 °F 46% 30.12 in 10.0 mi North 16.1 mph - N/A   Clear
7:14 PM 66.2 °F 44.6 °F 46% 30.12 in 10.0 mi North 17.3 mph 24.2 mph N/A   Scattered Clouds
7:33 PM 64.4 °F 44.6 °F 49% 30.12 in 10.0 mi North 13.8 mph - N/A   Scattered Clouds
7:54 PM 64.4 °F 44.6 °F 49% 30.13 in 10.0 mi NNW 11.5 mph - N/A   Clear
8:14 PM 62.6 °F 44.6 °F 52% 30.13 in 10.0 mi NNW 12.7 mph - N/A   Clear
8:33 PM 60.8 °F 44.6 °F 55% 30.13 in 10.0 mi NNW 8.1 mph - N/A   Clear
8:54 PM 59.0 °F 46.4 °F 63% 30.13 in 10.0 mi NNW 6.9 mph - N/A   Clear
9:14 PM 57.2 °F 46.4 °F 67% 30.13 in 10.0 mi NW 8.1 mph - N/A   Clear
9:33 PM 57.2 °F 46.4 °F 67% 30.13 in 10.0 mi NW 6.9 mph - N/A   Clear
9:54 PM 55.4 °F 46.4 °F 72% 30.14 in 10.0 mi NW 5.8 mph - N/A   Clear
10:14 PM 55.4 °F 46.4 °F 72% 30.14 in 10.0 mi NW 5.8 mph - N/A   Scattered Clouds
10:33 PM 55.4 °F 46.4 °F 72% 30.14 in 10.0 mi NW 5.8 mph - N/A   Mostly Cloudy
10:54 PM 55.4 °F 46.4 °F 72% 30.14 in 10.0 mi NW 4.6 mph - N/A   Overcast
11:14 PM 55.4 °F 48.2 °F 77% 30.14 in 10.0 mi NNW 5.8 mph - N/A   Overcast
11:33 PM 57.2 °F 46.4 °F 67% 30.14 in 10.0 mi North 9.2 mph - N/A   Mostly Cloudy
11:54 PM 55.4 °F 46.4 °F 72% 30.14 in 10.0 mi North 6.9 mph - N/A   Scattered Clouds